TimePST,TemperatureF,Dew PointF,Humidity,Sea Level PressureIn,VisibilityMPH,Wind Direction,Wind SpeedMPH,Gust SpeedMPH,PrecipitationIn,Events,Conditions,WindDirDegrees,DateUTC
12:56 AM,46.9,36.0,66,29.99,10.0,South,8.1,-,N/A,,Partly Cloudy,190,2013-11-28 08:56:00
1:56 AM,46.9,36.0,66,29.99,10.0,SW,8.1,-,N/A,,Partly Cloudy,230,2013-11-28 09:56:00
2:56 AM,48.0,35.1,61,29.99,10.0,SW,4.6,-,N/A,,Partly Cloudy,230,2013-11-28 10:56:00
3:56 AM,46.9,35.1,63,30.00,10.0,WSW,4.6,-,N/A,,Partly Cloudy,240,2013-11-28 11:56:00
4:56 AM,46.0,35.1,66,30.01,10.0,South,8.1,-,N/A,,Scattered Clouds,190,2013-11-28 12:56:00
5:56 AM,45.0,36.0,71,30.03,10.0,SSW,8.1,-,N/A,,Scattered Clouds,210,2013-11-28 13:56:00
6:56 AM,45.0,36.0,71,30.04,10.0,SSW,9.2,-,N/A,,Mostly Cloudy,200,2013-11-28 14:56:00
7:56 AM,46.9,37.0,68,30.06,10.0,SSW,6.9,-,N/A,,Overcast,210,2013-11-28 15:56:00
8:56 AM,53.1,36.0,52,30.06,10.0,Calm,Calm,-,N/A,,Mostly Cloudy,0,2013-11-28 16:56:00
9:56 AM,55.9,33.1,42,30.06,10.0,Calm,Calm,-,N/A,,Mostly Cloudy,0,2013-11-28 17:56:00
10:56 AM,57.9,33.1,39,30.04,10.0,Variable,4.6,-,N/A,,Mostly Cloudy,0,2013-11-28 18:56:00
11:56 AM,60.1,33.1,36,30.02,10.0,Calm,Calm,-,N/A,,Scattered Clouds,0,2013-11-28 19:56:00
12:56 PM,60.1,32.0,35,30.01,10.0,South,3.5,-,N/A,,Scattered Clouds,190,2013-11-28 20:56:00
1:56 PM,61.0,32.0,34,30.00,10.0,Calm,Calm,-,N/A,,Scattered Clouds,0,2013-11-28 21:56:00
2:56 PM,62.1,32.0,32,30.00,10.0,Calm,Calm,-,N/A,,Scattered Clouds,0,2013-11-28 22:56:00
3:56 PM,60.1,33.1,36,30.01,10.0,Variable,3.5,-,N/A,,Scattered Clouds,0,2013-11-28 23:56:00
4:56 PM,57.0,34.0,42,30.02,10.0,Calm,Calm,-,N/A,,Partly Cloudy,0,2013-11-29 00:56:00
5:56 PM,55.0,35.1,47,30.05,10.0,SSW,4.6,-,N/A,,Partly Cloudy,200,2013-11-29 01:56:00
6:56 PM,53.1,35.1,50,30.06,10.0,WSW,4.6,-,N/A,,Partly Cloudy,240,2013-11-29 02:56:00
7:56 PM,52.0,35.1,53,30.08,10.0,SSW,5.8,-,N/A,,Partly Cloudy,210,2013-11-29 03:56:00
8:56 PM,51.1,37.0,59,30.08,10.0,SSW,8.1,-,N/A,,Scattered Clouds,200,2013-11-29 04:56:00
9:56 PM,50.0,37.0,61,30.09,10.0,SSW,9.2,-,N/A,,Scattered Clouds,200,2013-11-29 05:56:00
10:56 PM,48.0,37.0,66,30.11,10.0,SSW,8.1,-,N/A,,Partly Cloudy,200,2013-11-29 06:56:00
11:56 PM,46.9,37.0,68,30.10,10.0,SSW,8.1,-,N/A,,Partly Cloudy,200,2013-11-29 07:56:00